User: anonymous   Login
Location: Brachbach
(49.1847°N, 9.7240°E)
Time: 19:09:56
(UTC+00:00)
Language:

YAOGAN 6 - Orbit

View from above orbital plane
View from above orbital plane
View from above satellite
View from above satellite

Ground track
Ground track

The orbit data is extracted from the following two-line orbital elements,

1 34839U 09021A   24202.44801976  .00027202  00000-0  48844-3 0  9992
2 34839  97.1714 169.7229 0018600  62.8627 297.4519 15.49665323848607
Epoch (UTC): 20 July 2024 10:45:08
Eccentricity: 0.0018600
inclination: 97.1714°
perigee height: 405 km
apogee height: 430 km
right ascension of ascending node: 169.7229°
argument of perigee: 62.8627°
revolutions per day: 15.49665323
mean anomaly at epoch: 297.4519°
orbit number at epoch: 84860

The dashed part of the orbit path shows where the satellite is in the earth's shadow,  

DLR